Malaga, Spain

8:37 PM CEST en Octubre 17, 2017 (GMT +0200)
Malaga

Tiempo Historia de LEMG - Octubre, 2017

Change the Weather History Date:

Viernes, Octubre 13, 2017

  Actual Average Record
Temperature  
Temperatura media 72 ° F -  
Temperatura máxima 83 ° F 69 ° F 83 ° F (2017)
Temperatura mínima 60 ° F 54 ° F 50 ° F (2000)
Cooling Degree Days 6    
Growing Degree Days 22 (Base 50)    
Moisture  
Punto de rocío 49 ° F    
Average Humidity 44    
Maximum Humidity 69    
Minimum Humidity 20    
Precipitación  
Precipitación 0.00 pul 0.11 pul - ()
Presión al nivel del mar  
Presión al nivel del mar 30.26 pul    
Viento  
Velocidad del viento 5 mph ()    
Velocidad máxima del viento 9 mph    
Max Gust Speed -    
Visibilidad 8.1 Millas    
Eventos      
Averages and records for this station are not official NWS values.
T = Trace of Precipitation, MM = Missing Value Source: Averaged Metar Reports

Daily Weather History Graph

Daily Weather History Graph

Search for Another Location

Airport or City:

Trip Planner

Search our weather history database for the weather conditions in past years. The results will help you decide how hot, cold, wet, or windy it might be!

Date:

Astronomía

Oct. 13, 2017 Salida Puesta
Hora real 8:23 AM CEST 7:44 PM CEST
Crepúsculo civil 7:57 AM CEST 8:10 PM CEST
Crepúsculo náutico 7:27 AM CEST 8:40 PM CEST
Crepúsculo astronómico 6:57 AM CEST 9:09 PM CEST
Luna 1:42 AM CEST (10/13) 4:07 PM CEST (10/13)
Horas de luz 12h 12m
Horas de luz
11h 20m
Cuarto menguante, 40% of the Moon is Illuminated
Oct 13
Cuarto menguante
Oct 19
Nueva
Oct 28
Cuarto creciente
Nov 4
Luna llena
Nov 10
Cuarto menguante

Hourly Weather History & Observations

Hora (CEST) Temp. Índice de calor Punto de rocío Humedad Presión Visibilidad Wind Dir Velocidad del viento Velocidad de ráfagas Precip Eventos Condiciones
12:00 AM 70 ° F - 46 ° F 32% 30.29 pul - ONO 2.3 mph - -  
12:00 AM 66.2 ° F - 48.2 ° F 52% 30.27 pul - ONO 2.3 mph - N/A   Despejado
12:30 AM 66.2 ° F - 46.4 ° F 49% 30.27 pul - Oeste 2.3 mph - N/A   Despejado
1:00 AM 70 ° F - 48 ° F 35% 30.29 pul - ONO 2.3 mph - -  
1:00 AM 66.2 ° F - 46.4 ° F 49% 30.27 pul - ONO 2.3 mph - N/A   Despejado
1:30 AM 64.4 ° F - 44.6 ° F 49% 30.27 pul - ONO 2.3 mph - N/A   Despejado
2:00 AM 66 ° F - 46 ° F 36% 30.29 pul 9 mi ONO 6.9 mph - -   Despejado
2:00 AM 64.4 ° F - 44.6 ° F 49% 30.27 pul - ONO 5.8 mph - N/A   Despejado
2:30 AM 62.6 ° F - 44.6 ° F 52% 30.27 pul - NO 3.5 mph - N/A   Despejado
3:00 AM 65 ° F - 46 ° F 39% 30.28 pul - ONO 6.9 mph - -  
3:00 AM 62.6 ° F - 44.6 ° F 52% 30.27 pul - ONO 6.9 mph - N/A   Despejado
3:30 AM 62.6 ° F - 44.6 ° F 52% 30.27 pul - ONO 8.1 mph - N/A   Despejado
4:00 AM 64 ° F - 44 ° F 37% 30.28 pul - Oeste 8.1 mph - -  
4:00 AM 64.4 ° F - 42.8 ° F 45% 30.27 pul - Oeste 6.9 mph - N/A   Despejado
4:30 AM 64.4 ° F - 42.8 ° F 45% 30.27 pul - Oeste 6.9 mph - N/A   Despejado
5:00 AM 64 ° F - 44 ° F 37% 30.27 pul 9 mi ONO 6.9 mph - -   Despejado
5:00 AM 62.6 ° F - 42.8 ° F 48% 30.27 pul - ONO 5.8 mph - N/A   Despejado
5:30 AM 60.8 ° F - 44.6 ° F 55% 30.24 pul - ONO 4.6 mph - N/A   Despejado
6:00 AM 64 ° F - 44 ° F 37% 30.27 pul - ONO 6.9 mph - -  
6:00 AM 60.8 ° F - 42.8 ° F 52% 30.24 pul - ONO 6.9 mph - N/A   Despejado
6:30 AM 60.8 ° F - 42.8 ° F 52% 30.24 pul - ONO 6.9 mph - N/A   Despejado
7:00 AM 63 ° F - 44 ° F 39% 30.27 pul - ONO 8.1 mph - -  
7:00 AM 60.8 ° F - 42.8 ° F 52% 30.24 pul - ONO 8.1 mph - N/A   Despejado
7:30 AM 60.8 ° F - 42.8 ° F 52% 30.27 pul - ONO 8.1 mph - N/A   Despejado
8:00 AM 62 ° F - 44 ° F 39% 30.27 pul 9 mi ONO 9.2 mph - -   Despejado
8:00 AM 60.8 ° F - 42.8 ° F 52% 30.27 pul - ONO 9.2 mph - N/A   Despejado
8:30 AM 62.6 ° F - 41.0 ° F 45% 30.27 pul - Oeste 9.2 mph - N/A   Despejado
9:00 AM 63 ° F - 43 ° F 36% 30.27 pul 19 mi ONO 8.1 mph - -   Nubes dispersas
9:00 AM 62.6 ° F - 42.8 ° F 48% 30.27 pul 6.2 mi ONO 6.9 mph - N/A   Parcialmente nublado
9:30 AM 60.8 ° F - 44.6 ° F 55% 30.27 pul 6.2 mi NO 4.6 mph - N/A   Parcialmente nublado
10:00 AM 66.2 ° F - 42.8 ° F 43% 30.27 pul 6.2 mi ONO 4.6 mph - N/A   Parcialmente nublado
10:30 AM 66.2 ° F - 44.6 ° F 46% 30.30 pul 6.2 mi ONO 6.9 mph - N/A   Parcialmente nublado
11:00 AM 72 ° F - 45 ° F 27% 30.28 pul 19 mi SE 4.6 mph - -   Nubes dispersas
11:00 AM 71.6 ° F - 44.6 ° F 38% 30.27 pul 6.2 mi SSE 4.6 mph - N/A   Parcialmente nublado
11:30 AM 73.4 ° F - 44.6 ° F 36% 30.27 pul 6.2 mi Variable 1.2 mph - N/A   Parcialmente nublado
12:00 PM 75.2 ° F - 44.6 ° F 34% 30.30 pul 6.2 mi Oeste 5.8 mph - N/A   Parcialmente nublado
12:30 PM 80.6 ° F - 44.6 ° F 28% 30.30 pul 6.2 mi Variable 2.3 mph - N/A   Parcialmente nublado
1:00 PM 81 ° F - 47 ° F 21% 30.31 pul - SE 4.6 mph - -  
1:00 PM 80.6 ° F - 44.6 ° F 28% 30.30 pul 6.2 mi SE 4.6 mph - N/A   Parcialmente nublado
1:30 PM 80.6 ° F - 44.6 ° F 28% 30.27 pul 6.2 mi SSE 8.1 mph - N/A   Parcialmente nublado
2:00 PM 83 ° F - 48 ° F 20% 30.28 pul 19 mi SE 6.9 mph - -   Nubes dispersas
2:00 PM 80.6 ° F - 44.6 ° F 28% 30.27 pul 6.2 mi SE 5.8 mph - N/A   Parcialmente nublado
2:30 PM 80.6 ° F - 42.8 ° F 26% 30.27 pul 6.2 mi SE 6.9 mph - N/A   Parcialmente nublado
3:00 PM 83 ° F - 49 ° F 21% 30.26 pul 19 mi SE 6.9 mph - -   Nubes dispersas
3:00 PM 80.6 ° F - 48.2 ° F 32% 30.24 pul 6.2 mi SE 5.8 mph - N/A   Parcialmente nublado
3:30 PM 78.8 ° F - 51.8 ° F 39% 30.24 pul 6.2 mi SE 6.9 mph - N/A   Parcialmente nublado
4:00 PM 82 ° F - 54 ° F 27% 30.25 pul - ESE 6.9 mph - -  
4:00 PM 80.6 ° F 80.3 ° F 53.6 ° F 39% 30.24 pul 6.2 mi SE 6.9 mph - N/A   Parcialmente nublado
4:30 PM 78.8 ° F - 53.6 ° F 42% 30.24 pul 6.2 mi ESE 5.8 mph - N/A   Parcialmente nublado
5:00 PM 80 ° F - 54 ° F 31% 30.24 pul 19 mi ESE 8.1 mph - -   Nubes dispersas
5:00 PM 77.0 ° F - 55.4 ° F 47% 30.24 pul 6.2 mi ESE 8.1 mph - N/A   Parcialmente nublado
5:30 PM 77.0 ° F - 53.6 ° F 44% 30.24 pul 6.2 mi SE 6.9 mph - N/A   Parcialmente nublado
6:00 PM 79 ° F - 56 ° F 35% 30.23 pul - ESE 8.1 mph - -  
6:00 PM 77.0 ° F - 57.2 ° F 50% 30.21 pul 6.2 mi SE 6.9 mph - N/A   Parcialmente nublado
6:30 PM 75.2 ° F - 57.2 ° F 53% 30.21 pul 6.2 mi ESE 5.8 mph - N/A   Parcialmente nublado
7:00 PM 78 ° F - 62 ° F 49% 30.23 pul - Este 4.6 mph - -  
7:00 PM 75.2 ° F - 57.2 ° F 53% 30.21 pul 6.2 mi ESE 3.5 mph - N/A   Parcialmente nublado
7:30 PM 75.2 ° F - 60.8 ° F 61% 30.21 pul 6.2 mi Variable 1.2 mph - N/A   Parcialmente nublado
8:00 PM 73.4 ° F - 60.8 ° F 65% 30.21 pul 6.2 mi SE 1.2 mph - N/A   Parcialmente nublado
8:30 PM 71.6 ° F - 60.8 ° F 69% 30.24 pul 6.2 mi Sin viento Sin viento - N/A   Parcialmente nublado
9:00 PM 71.6 ° F - 60.8 ° F 69% 30.24 pul 6.2 mi ESE 1.2 mph - N/A   Parcialmente nublado
9:30 PM 71.6 ° F - 59.0 ° F 64% 30.24 pul 6.2 mi Sin viento Sin viento - N/A   Parcialmente nublado
10:00 PM 73 ° F - 58 ° F 51% 30.25 pul - ONO 5.8 mph - -  
10:00 PM 69.8 ° F - 57.2 ° F 64% 30.24 pul 6.2 mi ONO 3.5 mph - N/A   Parcialmente nublado
10:30 PM 69.8 ° F - 57.2 ° F 64% 30.24 pul 6.2 mi ONO 3.5 mph - N/A   Parcialmente nublado
11:00 PM 72 ° F - 58 ° F 53% 30.25 pul 9 mi Oeste 2.3 mph - -   Nubes dispersas
11:00 PM 69.8 ° F - 55.4 ° F 60% 30.24 pul 6.2 mi Oeste 1.2 mph - N/A   Parcialmente nublado
11:30 PM 69.8 ° F - 55.4 ° F 60% 30.24 pul 6.2 mi Sin viento Sin viento - N/A   Parcialmente nublado